Content
SEND FEEDBACK

Daily
Averages
Monthly
Summary
Ireland

DRUMFIN, IRELAND


Home > Europe > Ireland
Elevation: 121 feet     Latitude: 54 11N     Longitude: 008 27W

WEATHER
 
SELECT A DAY
Number of Records: 193,007;   Date Range: 5/30/97 - 9/29/14
 
SHARE

PRINT THIS DATA

[ ← Previous Day ]
WEATHER ALMANAC - JANUARY 31, 2013
[ Next Day → ]
[ °C ]   °F
Weather ElementAverageHighLow
Temperature41.8 °F44.6 °F (11:30 am)39.2 °F (8:30 am)
Dewpoint37.9 °F41 °F (1:00 pm)35.6 °F (8:30 am)
Humidity85.5 %93 % (1:00 pm)76 % (1:30 pm)
Barometer29.63 in29.70 in (6:00 pm)29.51 in (6:00 am)
Wind Speed21.7 mph29.1 mph (6:00 am)
Wind Gust43.7 mph (8:30 am)
Weather ElementAverage
Visibility6.6 mi
Wind DirectionWSW (247.7 °)

Weather ElementTotal
Precipitation---
Heating Degree Days23.1 (Base 65)
Averaged from 22 records on January 31, 2013
WEATHER CONDITIONS BREAKOUT
WIND DIRECTION BREAKOUT
WEATHER BY HOUR - JANUARY 31, 2013
[ °C ]   °F
Local TimeTemperatureDewpointHumidityBarometerVisibilityWind DirectionWind SpeedGust SpeedPrecipitationEventsConditions
6:00 AM40.0 °F38.0 °F90 %29.51 in9.0 miWSW (250°)29.1 mphRainLight Rain Showers
8:00 AM41.0 °F37.4 °F87 %29.53 in5.6 miWSW (250°)21.9 mph36.8 mphRainLight Rain Showers
8:30 AM39.2 °F35.6 °F87 %29.56 in5.6 miWest (260°)28.8 mph43.7 mphMostly Cloudy
9:00 AM39.2 °F35.6 °F87 %29.59 in5.6 miWSW (240°)21.9 mph36.8 mphScattered Clouds
9:30 AM39.2 °F35.6 °F87 %29.59 in6.2 miWSW (250°)17.3 mphScattered Clouds
10:00 AM42.8 °F37.4 °F81 %29.59 in3.7 miWSW (250°)18.4 mphRainLight Rain Showers
10:30 AM41.0 °F37.4 °F87 %29.59 in6.2 miWSW (240°)24.2 mphPartly Cloudy
11:00 AM42.8 °F39.2 °F87 %29.62 in6.2 miWSW (240°)24.2 mph36.8 mphPartly Cloudy
11:30 AM44.6 °F39.2 °F81 %29.62 in6.2 miWSW (240°)21.9 mph34.5 mphPartly Cloudy
12:00 PM43.0 °F39.0 °F82 %29.66 in7.0 miWest (270°)24.6 mphHailLight Hail Showers
12:00 PM42.8 °F39.2 °F87 %29.62 in6.2 miWest (270°)24.2 mphMostly Cloudy
12:30 PM42.8 °F39.2 °F87 %29.65 in6.2 miWest (260°)26.5 mphScattered Clouds
1:00 PM42.8 °F41.0 °F93 %29.65 in6.2 miWSW (250°)25.3 mph36.8 mphScattered Clouds
1:30 PM44.6 °F37.4 °F76 %29.65 in6.2 miWSW (250°)25.3 mphScattered Clouds
2:00 PM44.6 °F39.2 °F81 %29.65 in5.6 miWSW (240°)19.6 mphMostly Cloudy
2:30 PM42.8 °F39.2 °F87 %29.65 in6.2 miSW (230°)18.4 mph29.9 mphMostly Cloudy
3:00 PM42.8 °F37.4 °F81 %29.65 in6.2 miWSW (250°)21.9 mphMostly Cloudy
3:30 PM42.8 °F37.4 °F81 %29.65 in6.2 miWSW (240°)16.1 mph27.6 mphMostly Cloudy
4:00 PM39.2 °F37.4 °F93 %29.68 in6.2 miWSW (250°)19.6 mph32.2 mphScattered Clouds
4:30 PM41.0 °F39.2 °F93 %29.68 in6.2 miWSW (240°)16.1 mphScattered Clouds
5:00 PM41.0 °F37.4 °F87 %29.68 in6.2 miWSW (250°)17.3 mphScattered Clouds
6:00 PM40.0 °F36.0 °F79 %29.70 in16.0 miSW (230°)15.7 mphPartly Cloudy
Hourly data recorded from EIKN, located miles away from Drumfin, Ireland







STORIES FROM OUR PARTNERS